Total_Precipitation_Accumulation
3.24 3.40 3.95 3.77 3.13 2.95 3.01 2.97 3.03 2.96 2.99 3.08 3.05 2.94 2.83 2.75 2.54 2.55 2.55 2.56 2.58 2.69 2.82 2.91 2.93 2.86 2.73 2.57 2.52 2.66 2.67 2.53 2.80 2.91 2.99 2.98 2.91 2.97 3.07 3.13 3.17 2.27 2.02
2.72 2.71 3.21 3.17 2.90 2.92 2.85 2.90 2.95 2.83 2.81 2.93 3.00 2.88 2.74 2.61 2.57 2.51 2.48 2.58 2.65 2.69 2.87 2.88 2.61 2.45 2.29 2.17 2.26 2.53 2.62 2.62 2.91 3.13 3.29 3.26 3.23 3.22 3.27 3.27 3.26 2.17 2.03
2.18 2.14 2.40 2.67 2.53 2.61 2.62 2.53 2.56 2.53 2.61 2.74 2.81 2.87 2.83 2.68 2.64 2.56 2.44 2.62 2.75 2.65 2.73 2.57 2.30 2.17 2.02 1.92 2.04 2.49 2.66 2.87 3.35 3.57 3.86 3.41 2.96 3.37 3.32 3.24 2.92 2.18 2.06
1.82 1.87 1.92 2.35 2.34 2.19 2.12 2.18 2.37 2.36 2.31 2.41 2.64 2.87 2.94 2.90 2.80 2.70 2.61 2.76 2.79 2.62 2.68 2.49 2.20 1.94 1.80 1.82 2.05 2.36 2.58 2.93 3.44 3.93 4.13 3.18 2.40 2.81 2.89 2.77 2.67 2.29 2.09
1.55 1.67 1.93 2.08 2.06 1.93 1.87 1.96 2.20 2.11 2.10 2.19 2.34 2.64 2.84 2.91 3.04 3.00 2.81 2.77 2.61 2.53 2.53 2.38 2.07 1.82 1.67 1.73 2.02 2.21 2.37 2.89 3.54 3.71 3.25 3.08 2.81 2.68 2.49 2.45 2.48 2.24 1.99
1.35 1.48 1.72 1.88 1.81 1.70 1.69 1.85 2.04 1.99 2.03 2.06 2.11 2.46 2.63 2.63 2.71 2.76 2.78 2.61 2.42 2.33 2.31 2.40 2.05 1.83 1.74 1.82 2.05 2.15 2.35 2.85 3.23 2.86 2.49 2.60 2.38 2.45 2.42 2.51 2.53 2.35 2.01
1.32 1.50 1.60 1.75 1.71 1.68 1.73 1.75 1.88 1.99 1.98 1.94 2.07 2.39 2.53 2.53 2.63 2.61 2.57 2.29 2.08 2.16 2.18 2.24 2.07 1.84 1.77 1.88 1.94 2.02 2.36 2.76 2.61 2.29 2.30 2.49 2.03 1.99 2.35 2.64 2.87 2.69 2.26
1.15 1.37 1.49 1.64 1.67 1.65 1.66 1.65 1.74 1.71 1.74 1.86 2.06 2.27 2.25 2.25 2.37 2.35 2.30 2.19 1.94 2.03 2.02 1.94 2.04 1.89 1.87 1.85 1.78 1.77 2.05 2.38 2.11 1.91 2.09 2.21 1.76 1.93 2.43 2.81 3.15 3.00 2.59
1.07 1.25 1.48 1.61 1.68 1.67 1.67 1.62 1.73 1.79 1.70 1.75 1.91 2.08 2.17 2.15 2.09 2.02 2.09 2.12 1.93 1.87 1.77 1.74 1.89 1.98 1.90 1.78 1.64 1.70 1.95 2.34 2.22 2.01 1.80 1.89 1.76 2.05 2.60 2.88 3.06 2.98 2.74
1.47 1.47 1.43 1.38 1.49 1.55 1.53 1.66 1.80 1.86 1.79 1.78 1.90 2.05 2.18 2.09 1.99 1.90 1.78 1.95 1.95 1.81 1.67 1.60 1.73 1.85 1.69 1.72 1.72 1.89 2.14 2.26 2.13 2.06 1.97 1.74 1.81 2.21 2.69 2.82 2.99 2.88 2.69
2.03 2.06 1.78 1.56 1.48 1.56 1.45 1.50 1.93 2.14 2.01 2.09 2.26 2.30 2.44 2.44 2.22 2.20 2.08 2.24 2.12 2.04 1.95 1.89 1.86 2.00 1.79 1.65 1.83 2.11 2.13 2.11 2.43 2.48 2.00 1.68 1.98 2.57 2.87 2.94 2.93 2.78 2.67
2.48 2.51 2.15 1.85 1.60 1.45 1.27 1.59 2.07 2.08 2.21 2.37 2.54 2.43 2.71 2.91 2.77 2.22 2.50 2.87 2.82 2.75 2.54 2.46 2.34 2.10 2.01 1.87 2.28 2.62 2.16 2.36 2.72 2.61 2.13 2.01 2.51 3.04 3.43 3.39 3.02 2.69 2.54
2.80 2.68 2.26 2.02 1.83 1.56 1.63 1.64 1.92 2.27 2.58 2.49 2.34 2.35 2.74 2.66 2.46 2.47 2.69 2.87 3.03 2.86 2.70 2.71 2.77 2.47 2.63 3.03 3.17 2.94 2.44 2.56 2.71 2.67 2.37 2.38 3.00 3.71 4.10 3.92 3.39 2.96 2.69
2.96 2.69 2.35 2.09 1.91 1.82 1.76 1.76 1.91 2.07 2.32 2.41 2.51 2.46 2.70 3.13 3.10 3.03 3.15 3.13 3.19 3.28 3.62 3.41 3.50 3.22 3.14 3.14 3.25 3.03 2.78 2.88 2.94 3.22 3.31 3.14 3.43 3.91 4.45 4.35 3.80 3.35 3.16
3.11 2.91 2.62 2.25 2.24 2.18 2.33 2.44 2.11 2.18 2.30 2.56 2.87 2.85 2.89 3.31 3.32 3.28 3.31 3.43 3.20 3.22 3.48 3.80 3.62 3.64 3.72 3.47 3.07 2.91 3.06 3.12 3.22 3.29 3.40 3.61 3.51 3.64 4.33 4.55 4.19 3.80 3.64
3.59 3.55 3.25 2.84 2.82 2.84 2.75 2.79 2.72 2.43 2.64 2.73 2.93 2.90 3.01 3.30 3.49 3.44 3.23 3.38 3.25 3.19 3.34 3.60 3.62 4.07 4.03 3.90 3.39 3.12 3.15 3.22 3.25 3.35 3.34 3.70 3.63 3.45 3.89 4.32 4.48 4.36 4.15
3.74 3.88 3.80 3.62 3.64 3.62 3.38 3.16 2.96 2.83 2.80 3.08 3.23 3.13 3.18 3.22 3.47 3.45 3.38 3.26 3.27 3.31 3.54 3.61 3.68 4.03 3.97 3.89 3.72 3.41 3.25 2.99 2.91 3.04 3.09 3.29 3.25 3.20 3.45 3.87 4.25 4.44 4.52
3.88 4.12 4.30 4.18 4.21 4.12 4.02 3.79 3.45 3.31 3.31 3.28 3.21 3.25 3.15 3.24 3.36 3.59 3.45 3.20 3.29 3.25 3.46 3.87 4.00 4.21 4.31 4.25 3.96 3.59 3.36 3.22 2.99 3.00 2.86 2.82 3.10 2.75 3.06 3.51 3.83 4.08 4.64
4.19 4.60 4.99 5.05 4.95 4.67 4.36 4.20 4.10 3.95 3.74 3.48 3.41 3.36 3.21 3.16 3.15 3.46 3.43 3.38 3.39 3.60 3.63 3.43 4.05 4.40 4.54 4.44 3.70 3.52 3.13 3.04 2.89 2.68 2.75 2.65 2.84 2.92 2.98 2.96 3.14 3.43 4.36
4.67 5.30 5.42 5.42 5.67 5.45 5.13 4.95 4.78 4.40 4.03 3.70 3.56 3.44 3.15 3.09 3.03 3.40 3.24 3.26 3.37 3.75 3.90 4.00 4.46 4.47 4.31 4.43 3.67 3.30 2.85 2.49 2.48 2.52 2.34 2.37 2.47 2.40 2.68 3.13 3.50 3.22 3.71
4.49 5.12 5.80 6.00 5.85 5.65 5.40 4.97 4.63 4.22 3.98 3.68 3.37 3.15 3.09 3.05 3.19 3.72 3.36 3.68 3.59 3.70 3.79 3.94 4.24 4.25 3.99 4.23 4.28 3.60 2.71 2.18 2.16 2.05 2.04 2.18 2.10 2.12 2.47 3.13 3.42 3.48 3.27
3.89 4.35 4.85 5.21 4.89 4.52 4.36 4.32 4.20 4.13 3.72 3.56 3.47 3.55 3.24 3.25 3.29 3.39 3.66 3.57 3.62 3.79 3.58 3.66 4.04 3.92 3.46 3.84 4.29 4.34 3.43 2.77 2.21 1.68 1.84 1.93 2.08 2.26 2.22 2.32 2.78 3.35 3.31
3.33 3.48 3.67 3.92 3.99 4.00 4.07 4.17 4.34 4.51 4.18 4.03 3.97 3.88 3.40 3.28 3.29 3.41 3.39 3.37 3.52 3.47 3.47 3.47 3.65 3.81 3.67 3.62 3.98 4.39 3.79 3.11 2.46 1.88 1.76 1.75 2.07 2.37 2.31 2.32 2.57 3.03 3.22
2.68 2.92 3.43 3.66 3.75 3.96 4.24 4.29 4.34 4.32 4.26 4.23 4.30 4.21 4.02 3.72 3.51 3.32 3.18 3.17 3.18 3.06 3.22 2.99 3.27 3.54 3.75 3.46 3.55 3.52 3.39 3.34 3.21 2.50 1.97 1.84 2.08 2.28 2.36 2.31 2.43 2.78 3.07
2.24 2.57 3.17 3.74 3.95 4.12 4.34 4.46 4.73 4.56 4.41 4.27 4.30 4.37 4.17 3.86 3.52 3.15 3.15 3.17 3.13 2.99 2.91 2.86 3.12 3.09 3.23 3.28 3.33 3.30 3.36 3.30 3.12 2.86 2.44 2.25 2.14 1.87 1.87 2.02 2.26 2.58 2.83
2.35 2.66 3.12 3.62 3.96 4.11 4.20 4.25 4.37 4.41 4.43 4.20 4.05 3.76 3.37 3.23 3.09 2.84 2.87 2.94 2.85 2.85 2.88 2.83 2.87 2.88 2.97 3.06 3.08 3.07 3.21 3.17 3.15 3.19 2.84 2.58 2.35 1.98 1.80 1.86 2.03 2.30 2.49